FW1419 Weather Reports


Display with metric or nautical units.
time (UTC)temp
F
wind
direction
speed
MPH
gust
MPH
rain 1hr
in
rain 24hr
in
rain mn
in
humidity
%
barometer
mb
20260905201847 92 247 4.0 10.0 0.00 0.01 0.00 20 1013.6
20260905201317 92 223 2.0 13.0 0.00 0.01 0.00 20 1013.6
20260905200828 92 228 6.0 11.0 0.00 0.01 0.00 20 1013.7
20260905200318 92 200 3.0 9.0 0.00 0.01 0.00 22 1013.7
20260905195850 91 269 1.0 8.0 0.00 0.01 0.00 19 1013.7
20260905195321 91 55 2.0 8.0 0.00 0.01 0.00 18 1013.8
20260905194852 92 269 2.0 7.0 0.00 0.01 0.00 15 1013.9
20260905194322 92 237 4.0 7.0 0.00 0.01 0.00 16 1014.0
20260905193813 92 274 3.0 10.0 0.00 0.01 0.00 15 1014.1
20260905193328 91 210 5.0 10.0 0.00 0.01 0.00 16 1014.1
20260905192820 91 226 2.0 6.0 0.00 0.01 0.00 16 1014.1
20260905192311 90 319 1.0 6.0 0.00 0.01 0.00 17 1014.1
20260905191823 91 281 3.0 7.0 0.00 0.01 0.00 16 1014.2
20260905191313 90 238 3.0 7.0 0.00 0.01 0.00 16 1014.4
20260905190824 90 198 3.0 7.0 0.00 0.01 0.00 16 1014.4
20260905190313 89 197 0.0 6.0 0.00 0.01 0.00 17 1014.4
20260905185825 88 217 2.0 6.0 0.00 0.01 0.00 18 1014.4
20260905185315 88 308 3.0 6.0 0.00 0.01 0.00 18 1014.5
20260905184827 87 308 2.0 6.0 0.00 0.01 0.00 18 1014.5
20260905184322 87 68 1.0 5.0 0.00 0.01 0.00 19 1014.5
20260905183812 87 295 2.0 7.0 0.00 0.01 0.00 19 1014.5
20260905183323 87 313 3.0 6.0 0.00 0.01 0.00 19 1014.6
20260905182815 87 304 2.0 6.0 0.00 0.01 0.00 19 1014.6
20260905182326 87 256 1.0 7.0 0.00 0.01 0.00 19 1014.7
20260905181818 86 202 1.0 7.0 0.00 0.01 0.00 20 1014.7
20260905181329 86 63 1.0 8.0 0.00 0.01 0.00 21 1014.8
20260905180820 85 291 3.0 8.0 0.00 0.01 0.00 20 1014.8
20260905180351 84 323 2.0 5.0 0.00 0.01 0.00 21 1014.8
20260905175821 84 308 1.0 7.0 0.00 0.01 0.00 22 1014.8
20260905175316 83 310 2.0 7.0 0.00 0.01 0.00 22 1014.8
20260905174829 83 32 3.0 7.0 0.00 0.01 0.00 23 1014.8
20260905174319 82 344 2.0 6.0 0.00 0.01 0.00 23 1014.7
20260905173851 82 299 1.0 6.0 0.00 0.01 0.00 24 1014.6
20260905173322 81 285 2.0 4.0 0.00 0.01 0.00 24 1014.7
20260905172812 81 282 1.0 4.0 0.00 0.01 0.00 24 1014.6
20260905172323 81 326 2.0 4.0 0.00 0.01 0.00 24 1014.7
20260905171814 81 293 2.0 4.0 0.00 0.01 0.00 24 1014.7
20260905171324 80 304 1.0 4.0 0.00 0.01 0.00 24 1014.6
20260905170815 80 302 2.0 4.0 0.00 0.01 0.00 24 1014.5
20260905170330 79 20 2.0 5.0 0.00 0.01 0.00 26 1014.7
20260905165821 79 312 1.0 5.0 0.00 0.01 0.00 26 1014.7
20260905165312 78 25 1.0 5.0 0.00 0.01 0.00 27 1014.7
20260905164816 78 287 2.0 5.0 0.00 0.01 0.00 27 1014.7
20260905164328 78 290 2.0 5.0 0.00 0.01 0.00 27 1014.6
20260905163818 78 319 2.0 5.0 0.00 0.01 0.00 28 1014.6
20260905163329 77 309 1.0 4.0 0.00 0.01 0.00 29 1014.6
20260905162819 77 311 1.0 4.0 0.00 0.01 0.00 29 1014.6
20260905162330 77 34 1.0 3.0 0.00 0.01 0.00 29 1014.5
20260905161841 76 310 0.0 3.0 0.00 0.01 0.00 29 1014.6
20260905161315 76 32 0.0 3.0 0.00 0.01 0.00 29 1014.5
20260905160826 76 6 1.0 2.0 0.00 0.01 0.00 29 1014.5
20260905160318 76 235 1.0 1.0 0.00 0.01 0.00 28 1014.6
20260905155849 76 234 0.0 1.0 0.00 0.01 0.00 29 1014.5
20260905155319 74 235 0.0 1.0 0.00 0.01 0.00 31 1014.5
20260905154831 74 236 0.0 1.0 0.00 0.01 0.00 32 1014.5
20260905154322 73 236 0.0 1.0 0.00 0.01 0.00 33 1014.4
20260905153814 73 212 0.0 1.0 0.00 0.01 0.00 33 1014.4
20260905153324 72 212 0.0 1.0 0.00 0.01 0.00 34 1014.5
20260905152820 72 212 0.0 1.0 0.00 0.01 0.00 34 1014.4
20260905152311 71 212 0.0 1.0 0.01 0.01 0.00 35 1014.4
20260905151821 70 212 0.0 2.0 0.01 0.01 0.00 36 1014.3
20260905151312 71 212 0.0 2.0 0.01 0.01 0.00 34 1014.2
20260905150844 71 212 0.0 1.0 0.01 0.01 0.00 35 1014.2
20260905150316 70 212 0.0 0.0 0.01 0.01 0.00 38 1014.2
20260905145847 68 212 0.0 0.0 0.01 0.01 0.00 40 1014.2
20260905145338 68 212 0.0 0.0 0.01 0.01 0.00 41 1014.2
20260905144829 68 212 0.0 0.0 0.01 0.01 0.00 41 1014.1
20260905144341 66 212 0.0 0.0 0.01 0.01 0.00 45 1014.1
20260905143851 64 212 0.0 0.0 0.01 0.01 0.00 49 1014.0
20260905143325 62 212 0.0 0.0 0.01 0.01 0.01 50 1014.0
20260905142823 59 212 327.0 0.0 0.00 0.00 0.00 53 1013.9
20260905141325 59 150 0.0 0.0 0.00 0.00 0.00 53 1013.9
20260905140815 57 150 0.0 0.0 0.00 0.00 0.00 56 1013.9
20260905140347 56 150 0.0 0.0 0.00 0.00 0.00 57 1013.7
20260905135817 56 150 0.0 0.0 0.00 0.00 0.00 58 1013.8
20260905135329 55 150 0.0 0.0 0.00 0.00 0.00 59 1013.8
20260905134841 55 150 0.0 0.0 0.00 0.00 0.00 59 1013.8
20260905134311 55 150 0.0 0.0 0.00 0.00 0.00 60 1013.9
20260905133822 55 150 0.0 0.0 0.00 0.00 0.00 61 1013.8
20260905133314 55 150 0.0 0.0 0.00 0.00 0.00 61 1013.8
20260905132826 55 150 0.0 0.0 0.00 0.00 0.00 61 1013.8
20260905132320 55 150 0.0 0.0 0.00 0.00 0.00 61 1013.7
20260905131831 55 150 0.0 0.0 0.00 0.00 0.00 61 1013.7
20260905131323 55 150 0.0 0.0 0.00 0.00 0.00 61 1013.7
20260905130815 55 150 0.0 0.0 0.00 0.00 0.00 61 1013.8
20260905130326 55 150 0.0 0.0 0.00 0.00 0.00 61 1013.5
20260905125817 55 150 0.0 0.0 0.00 0.00 0.00 60 1013.5
20260905125329 55 150 0.0 0.0 0.00 0.00 0.00 61 1013.5
20260905124841 55 150 0.0 0.0 0.00 0.00 0.00 61 1013.4
20260905124333 55 150 0.0 0.0 0.00 0.00 0.00 61 1013.4
20260905123828 55 150 0.0 0.0 0.00 0.00 0.00 61 1013.4
20260905123318 55 150 0.0 0.0 0.00 0.00 0.00 62 1013.2
20260905122850 55 150 0.0 0.0 0.00 0.00 0.00 62 1013.2
20260905122320 55 150 0.0 0.0 0.00 0.00 0.00 62 1013.2
20260905121811 55 150 0.0 0.0 0.00 0.00 0.00 61 1013.2
20260905121323 56 150 0.0 0.0 0.00 0.00 0.00 61 1013.2
20260905120813 56 150 0.0 0.0 0.00 0.00 0.00 60 1013.2
20260905120325 56 150 0.0 0.0 0.00 0.00 0.00 60 1013.2
20260905115816 56 150 0.0 0.0 0.00 0.00 0.00 60 1013.2
20260905115324 56 150 0.0 0.0 0.00 0.00 0.00 60 1013.3
20260905114821 56 150 0.0 0.0 0.00 0.00 0.00 59 1013.2
20260905114333 57 150 0.0 0.0 0.00 0.00 0.00 58 1013.1
20260905113824 57 150 0.0 0.0 0.00 0.00 0.00 58 1013.1
20260905113315 57 150 0.0 0.0 0.00 0.00 0.00 58 1013.1
20260905112826 57 150 0.0 0.0 0.00 0.00 0.00 58 1013.1
20260905112316 57 150 0.0 0.0 0.00 0.00 0.00 59 1013.2
20260905111848 57 150 0.0 0.0 0.00 0.00 0.00 59 1013.1
20260905111338 57 150 0.0 0.0 0.00 0.00 0.00 59 1013.3
20260905110829 57 150 0.0 0.0 0.00 0.00 0.00 59 1013.2
20260905110322 57 150 0.0 0.0 0.00 0.00 0.00 59 1013.3
20260905105818 57 150 0.0 0.0 0.00 0.00 0.00 58 1013.3
20260905105330 58 150 0.0 0.0 0.00 0.00 0.00 58 1013.3
20260905104819 58 150 0.0 0.0 0.00 0.00 0.00 58 1013.3
20260905104331 58 150 0.0 0.0 0.00 0.00 0.00 59 1013.5
20260905103823 57 150 0.0 0.0 0.00 0.00 0.00 59 1013.5
20260905103314 57 150 0.0 0.0 0.00 0.00 0.00 59 1013.7
20260905102845 57 150 0.0 0.0 0.00 0.00 0.00 58 1013.5
20260905102315 57 150 0.0 0.0 0.00 0.00 0.00 58 1013.6
20260905101826 57 150 0.0 0.0 0.00 0.00 0.00 57 1013.6
20260905101317 58 150 0.0 0.0 0.00 0.00 0.00 57 1013.5
20260905100811 58 150 0.0 0.0 0.00 0.00 0.00 57 1013.4
20260905100322 58 150 0.0 0.0 0.00 0.00 0.00 57 1013.4
20260905095814 58 150 0.0 0.0 0.00 0.00 0.00 57 1013.4
20260905095325 58 150 0.0 0.0 0.00 0.00 0.00 56 1013.5
20260905094817 59 150 0.0 0.0 0.00 0.00 0.00 56 1013.5
20260905094326 59 150 0.0 0.0 0.00 0.00 0.00 55 1013.5
20260905093817 59 150 0.0 0.0 0.00 0.00 0.00 55 1013.4
20260905093330 59 150 0.0 0.0 0.00 0.00 0.00 56 1013.5
20260905092821 59 150 0.0 0.0 0.00 0.00 0.00 56 1013.5
20260905092315 59 150 0.0 0.0 0.00 0.00 0.00 55 1013.4
20260905091827 60 150 0.0 0.0 0.00 0.00 0.00 54 1013.4
20260905091318 60 150 0.0 0.0 0.00 0.00 0.00 54 1013.4
20260905090830 60 150 0.0 0.0 0.00 0.00 0.00 54 1013.4
20260905090320 60 150 0.0 0.0 0.00 0.00 0.00 54 1013.5
20260905085833 61 150 0.0 0.0 0.00 0.00 0.00 53 1013.5
20260905085322 60 150 0.0 0.0 0.00 0.00 0.00 53 1013.5
20260905084813 61 150 0.0 0.0 0.00 0.00 0.00 53 1013.7
20260905084324 61 150 0.0 0.0 0.00 0.00 0.00 53 1013.5
20260905083815 61 150 0.0 0.0 0.00 0.00 0.00 52 1013.5
20260905083346 61 150 0.0 0.0 0.00 0.00 0.00 51 1013.6
20260905082820 61 150 0.0 0.0 0.00 0.00 0.00 52 1013.7
20260905082311 61 150 0.0 0.0 0.00 0.00 0.00 51 1013.8
20260905081823 61 150 0.0 0.0 0.00 0.00 0.00 52 1014.0
20260905081314 62 150 0.0 0.0 0.00 0.00 0.00 51 1013.9
20260905080826 62 150 0.0 0.0 0.00 0.00 0.00 50 1014.0
20260905080317 62 150 0.0 0.0 0.00 0.00 0.00 50 1014.0
20260905075829 62 150 0.0 0.0 0.00 0.00 0.00 50 1014.0
20260905075320 62 150 0.0 0.0 0.00 0.00 0.00 50 1014.1
20260905074816 62 150 0.0 0.0 0.00 0.00 0.00 50 1014.1
20260905074329 62 150 0.0 0.0 0.00 0.00 0.00 51 1014.1
20260905073840 62 150 0.0 0.0 0.00 0.00 0.00 51 1014.0
20260905073330 62 150 0.0 0.0 0.00 0.00 0.00 51 1014.0
20260905072823 62 150 0.0 0.0 0.00 0.00 0.00 51 1014.0
20260905072314 63 150 0.0 0.0 0.00 0.00 0.00 50 1014.0
20260905071825 63 150 0.0 0.0 0.00 0.00 0.00 50 1013.9
20260905071316 63 150 0.0 0.0 0.00 0.00 0.00 50 1013.9
20260905070848 63 150 0.0 0.0 0.00 0.00 0.00 50 1013.9
20260905070318 63 150 0.0 0.0 0.00 0.00 0.00 49 1013.8
20260905065812 63 150 0.0 0.0 0.00 0.00 0.00 49 1013.8
20260905065323 63 150 0.0 0.0 0.00 0.00 0.00 48 1013.8
20260905064815 64 150 0.0 0.0 0.00 0.00 0.00 48 1013.8
20260905064346 64 150 0.0 0.0 0.00 0.00 0.00 48 1013.7
20260905063837 64 150 0.0 0.0 0.00 0.00 0.00 48 1013.7
20260905063327 64 150 0.0 0.0 0.00 0.00 0.00 48 1013.8
20260905062820 64 150 0.0 0.0 0.00 0.00 0.00 49 1013.7
20260905062311 64 150 0.0 0.0 0.00 0.00 0.00 49 1013.7
20260905061823 64 150 0.0 0.0 0.00 0.00 0.00 49 1013.7
20260905061314 64 150 0.0 0.0 0.00 0.00 0.00 48 1013.5
20260905060830 64 150 0.0 0.0 0.00 0.00 0.00 48 1013.6
20260905060321 65 164 0.0 0.0 0.00 0.00 0.00 47 1013.4
20260905055812 65 192 0.0 0.0 0.00 0.00 0.00 48 1013.4
20260905055324 65 192 0.0 0.0 0.00 0.00 0.00 47 1013.4
20260905054836 66 192 0.0 0.0 0.00 0.00 0.00 46 1013.4
20260905054327 66 192 0.0 0.0 0.00 0.00 0.00 45 1013.5
20260905053817 66 192 0.0 0.0 0.00 0.00 0.00 43 1013.4
20260905053330 67 192 0.0 0.0 0.00 0.00 0.00 42 1013.5
20260905052841 67 192 0.0 0.0 0.00 0.00 0.00 41 1013.5
20260905052316 68 192 0.0 0.0 0.00 0.00 0.00 38 1013.5
20260905051828 68 192 0.0 0.0 0.00 0.00 0.00 37 1013.5
20260905051319 68 192 0.0 0.0 0.00 0.00 0.00 36 1013.6
20260905050851 69 192 0.0 0.0 0.00 0.00 0.00 35 1013.5
20260905050321 69 192 0.0 0.0 0.00 0.00 0.00 35 1013.4
20260905045813 69 192 0.0 0.0 0.00 0.00 0.00 35 1013.5
20260905045325 69 192 0.0 0.0 0.00 0.00 0.00 34 1013.4
20260905044817 69 192 0.0 0.0 0.00 0.00 0.00 33 1013.5
20260905044330 69 216 0.0 0.0 0.00 0.00 0.00 33 1013.5
20260905043824 69 224 0.0 0.0 0.00 0.00 0.00 34 1013.4
20260905043315 70 224 0.0 0.0 0.00 0.00 0.00 32 1013.4
20260905042827 70 224 0.0 0.0 0.00 0.00 0.00 33 1013.5
20260905042339 70 224 0.0 0.0 0.00 0.00 0.00 36 1013.5
20260905041829 71 224 0.0 0.0 0.00 0.00 0.00 36 1013.4
20260905041321 71 224 0.0 0.0 0.00 0.00 0.00 36 1013.4
20260905040813 72 224 0.0 0.0 0.00 0.00 0.00 36 1013.4
20260905040325 72 224 0.0 0.0 0.00 0.00 0.00 35 1013.4
20260905035816 72 224 0.0 2.0 0.00 0.00 0.00 34 1013.2
20260905035311 72 229 1.0 2.0 0.00 0.00 0.00 35 1013.1
20260905034822 72 205 1.0 2.0 0.00 0.00 0.00 34 1013.1
20260905034314 72 271 0.0 0.0 0.00 0.00 0.00 34 1013.1
20260905033846 72 271 0.0 0.0 0.00 0.00 0.00 33 1013.1
20260905033316 73 271 0.0 1.0 0.00 0.00 0.00 33 1013.1
20260905032828 73 271 0.0 1.0 0.00 0.00 0.00 33 1013.1
20260905032319 73 271 0.0 1.0 0.00 0.00 0.00 33 1013.0
20260905031830 73 271 0.0 1.0 0.00 0.00 0.00 33 1012.9
20260905031321 74 271 0.0 1.0 0.00 0.00 0.00 33 1012.8
20260905030836 74 271 0.0 0.0 0.00 0.00 0.00 32 1012.8
20260905030325 74 271 0.0 1.0 0.00 0.00 0.00 32 1012.7
20260905025838 75 271 0.0 1.0 0.00 0.00 0.00 32 1012.6
20260905025329 75 271 0.0 1.0 0.00 0.00 0.00 31 1012.5
20260905024821 75 271 0.0 1.0 0.00 0.00 0.00 31 1012.4
20260905024313 76 271 0.0 1.0 0.00 0.00 0.00 31 1012.3
20260905023823 76 261 0.0 2.0 0.00 0.00 0.00 30 1012.3
20260905023314 76 205 1.0 2.0 0.00 0.00 0.00 30 1012.3
20260905022824 77 271 1.0 2.0 0.00 0.00 0.00 29 1012.2
20260905022320 77 265 0.0 3.0 0.00 0.00 0.00 29 1012.3
20260905021831 77 265 0.0 5.0 0.00 0.00 0.00 29 1012.3
20260905021321 78 203 0.0 5.0 0.00 0.00 0.00 29 1012.1
20260905020814 78 235 2.0 5.0 0.00 0.00 0.00 29 1012.2
20260905020325 79 255 0.0 7.0 0.00 0.00 0.00 29 1012.1
20260905015816 79 205 3.0 7.0 0.00 0.00 0.00 28 1012.0
20260905015327 79 206 1.0 6.0 0.00 0.00 0.00 28 1012.1
20260905014818 79 214 3.0 8.0 0.00 0.00 0.00 28 1012.0
20260905014350 80 232 4.0 8.0 0.00 0.00 0.00 28 1012.1
20260905013825 80 188 2.0 6.0 0.00 0.00 0.00 28 1012.1
20260905013316 80 208 3.0 8.0 0.00 0.00 0.00 28 1012.0
20260905012830 81 271 4.0 8.0 0.00 0.00 0.00 27 1011.9
20260905012320 81 204 0.0 8.0 0.00 0.00 0.00 28 1012.0
20260905011852 81 235 3.0 11.0 0.00 0.00 0.00 28 1012.0
20260905011322 82 192 3.0 11.0 0.00 0.00 0.00 28 1012.1
20260905010814 82 226 5.0 11.0 0.00 0.00 0.00 27 1012.1
20260905010325 83 266 6.0 11.0 0.00 0.00 0.00 26 1012.1
20260905005816 84 198 4.0 8.0 0.00 0.00 0.00 26 1012.1
20260905005327 84 203 3.0 9.0 0.00 0.00 0.00 26 1012.1
20260905004819 84 192 5.0 10.0 0.00 0.00 0.00 25 1012.1
20260905004315 84 214 5.0 10.0 0.00 0.00 0.00 26 1012.0
20260905003826 85 183 5.0 10.0 0.00 0.00 0.00 25 1012.0
20260905003317 85 193 4.0 10.0 0.00 0.00 0.00 26 1012.0
20260905002848 85 247 5.0 10.0 0.00 0.00 0.00 26 1011.9
20260905002319 85 207 5.0 9.0 0.00 0.00 0.00 27 1011.8
20260905001828 85 228 5.0 10.0 0.00 0.00 0.00 26 1011.8
20260905001321 85 205 2.0 12.0 0.00 0.00 0.00 26 1011.7
20260905000834 85 238 5.0 11.0 0.00 0.00 0.00 26 1011.8
20260905000325 86 215 6.0 11.0 0.00 0.00 0.00 26 1011.8
20260904235815 86 224 4.0 9.0 0.00 0.00 0.00 26 1011.7
20260904235330 86 256 4.0 9.0 0.00 0.00 0.00 25 1011.8
20260904234821 86 187 3.0 12.0 0.00 0.00 0.00 26 1011.7
20260904234311 86 212 5.0 13.0 0.00 0.00 0.00 26 1011.7
20260904233823 86 233 6.0 12.0 0.00 0.00 0.00 25 1011.8
20260904233313 86 263 3.0 11.0 0.00 0.00 0.00 24 1011.8
20260904232825 86 217 3.0 11.0 0.00 0.00 0.00 25 1011.8
20260904232336 86 282 4.0 11.0 0.00 0.00 0.00 24 1011.8
20260904231826 86 219 8.0 12.0 0.00 0.00 0.00 24 1011.9
20260904231317 86 213 5.0 12.0 0.00 0.00 0.00 25 1011.8
20260904230813 87 236 7.0 11.0 0.00 0.00 0.00 24 1011.8
20260904230325 87 201 3.0 8.0 0.00 0.00 0.00 25 1011.8
20260904225836 87 224 3.0 8.0 0.00 0.00 0.00 25 1011.8
20260904225347 87 282 4.0 10.0 0.00 0.00 0.00 26 1011.9
20260904224837 87 210 6.0 10.0 0.00 0.00 0.00 26 1011.8
20260904224348 87 236 6.0 10.0 0.00 0.00 0.00 25 1011.8
20260904223818 87 209 6.0 9.0 0.00 0.00 0.00 25 1011.8
20260904223330 88 245 2.0 7.0 0.00 0.00 0.00 25 1011.9
20260904222822 88 206 3.0 7.0 0.00 0.00 0.00 26 1011.9
20260904222314 87 246 3.0 6.0 0.00 0.00 0.00 25 1011.9
20260904221826 87 239 3.0 13.0 0.00 0.00 0.00 25 1011.9
20260904221322 88 288 7.0 13.0 0.00 0.00 0.00 24 1011.9
20260904220813 88 242 4.0 10.0 0.00 0.00 0.00 24 1011.8
20260904220325 87 250 2.0 8.0 0.00 0.00 0.00 23 1011.8
20260904215836 87 258 3.0 8.0 0.00 0.00 0.00 23 1012.0
20260904215327 87 223 4.0 8.0 0.00 0.00 0.00 23 1012.0
20260904214817 87 221 2.0 7.0 0.00 0.00 0.00 23 1012.0
20260904214348 88 222 2.0 10.0 0.00 0.00 0.00 23 1012.0
20260904213819 87 240 5.0 10.0 0.00 0.00 0.00 22 1012.1
20260904213351 88 224 2.0 6.0 0.00 0.00 0.00 21 1012.0
20260904212841 87 164 2.0 7.0 0.00 0.00 0.00 23 1012.1
20260904212313 86 231 2.0 9.0 0.00 0.00 0.00 23 1012.1
20260904211845 86 280 4.0 9.0 0.00 0.00 0.00 22 1012.1
20260904211318 86 298 4.0 8.0 0.00 0.00 0.00 20 1012.1
20260904210829 86 309 3.0 8.0 0.00 0.00 0.00 22 1012.3
20260904210320 87 274 1.0 7.0 0.00 0.00 0.00 22 1012.3
20260904205831 86 253 2.0 7.0 0.00 0.00 0.00 21 1012.4
20260904205323 85 80 1.0 7.0 0.00 0.00 0.00 22 1012.4
20260904204834 85 290 4.0 7.0 0.00 0.00 0.00 22 1012.5
20260904204347 85 291 3.0 7.0 0.00 0.00 0.00 22 1012.5
20260904203836 85 233 2.0 8.0 0.00 0.00 0.00 24 1012.4
20260904203347 84 234 4.0 8.0 0.00 0.00 0.00 25 1012.5
20260904202817 85 283 4.0 9.0 0.00 0.00 0.00 25 1012.5
20260904202328 85 276 3.0 9.0 0.00 0.00 0.00 27 1012.6